Regional Weather Roundup
Issued by NWS

Home | Current Version | Previous Version | Graphics & Text | Print | Product List | Glossary On
Versions: 1 2 3 4 5 6 7 8 9 10 11 12 13 14 15 16 17 18 19 20 21 22 23 24 25 26 27 28 29 30 31 32 33 34 35 36 37 38 39 40 41 42 43 44 45 46 47 48 49 50
000
ASUS45 KTFX 060710
RWRMT
MONTANA REGIONAL WEATHER ROUNDUP
NATIONAL WEATHER SERVICE GREAT FALLS MT
1200 AM MST SAT FEB 06 2016

NOTE: "FAIR" INDICATES FEW OR NO CLOUDS BELOW 12000 FEET WITH NO
SIGNIFICANT WEATHER AND/OR OBSTRUCTIONS TO VISIBILITY.

MTZ001>007-043-060800-
WEST OF THE DIVIDE

CITY           SKY/WX    TMP DP  RH WIND       PRES   REMARKS
KALISPELL      MOCLDY    34  29  82 W8        30.07F WCI  27
MISSOULA       PTCLDY    29  26  89 SE3       30.16F
BUTTE          CLOUDY    36  19  50 S5        30.18F
MULLAN PASS    CLOUDY    28  26  92 S8        30.09R WCI  20
ANACONDA         N/A     36  21  55 S18G26    30.14F WCI  25
DEER LODGE       N/A     36  25  64 E7        30.15F WCI  30
HAMILTON         N/A     39  23  52 S9        30.17F
LIBBY            N/A     30  28  93 S5        30.07F
PLAINS           N/A     30  25  82 W3        30.11
$$

MTZ008-052>055-060800-
SOUTHWEST MONTANA

CITY           SKY/WX    TMP DP  RH WIND       PRES   REMARKS
BOZEMAN        CLOUDY    18  12  77 SE9       30.20F WCI   7
DILLON         CLOUDY    24  15  68 SW14      30.24F WCI  12
ENNIS          CLEAR     25  18  74 S24G32    30.32F WCI   9
THREE FORKS      N/A     34   1  24 SW23      30.16F WCI  22
$$

MTZ009-010-012-014-046-048-049-054-060800-
EAST SLOPES AND CENTRAL MONTANA

CITY           SKY/WX    TMP DP  RH WIND       PRES   REMARKS
CUT BANK       MOCLDY    44  22  41 SW9       29.88R
GREAT FALLS    CLOUDY    44  21  40 SW32G41   29.98F
MALMSTROM AFB  MOCLDY    43  22  42 SW25      29.99F
HELENA         CLEAR     31  23  72 SW5       30.13S
CHOTEAU          N/A     45  19  36 SW13      29.94F
$$

MTZ011-013-016-021-045-047-050-051-060800-
NORTH CENTRAL MONTANA

CITY           SKY/WX    TMP DP  RH WIND       PRES   REMARKS
HAVRE          CLOUDY    43  27  53 SW20      29.88F
LEWISTOWN      CLOUDY    40  23  50 SW18G31   30.00F
N BAR RANCH      N/A     43  18  36 W6        29.98S
CHINOOK          N/A     48  21  34 SW23G32   29.86S
$$

MTZ017>020-022>027-061-062-060800-
NORTHEAST MONTANA

CITY           SKY/WX    TMP DP  RH WIND       PRES   REMARKS
GLASGOW        CLOUDY    36  26  67 SW8       29.88F WCI  30
JORDAN           N/A     34  26  72 SW5       29.95F
SIDNEY         CLOUDY    30  21  69 S12       29.92S WCI  21
WOLF POINT     CLOUDY    29  23  78 W7        29.90F WCI  22
PLENTYWOOD       N/A     30  25  80 E3        29.84F
POPLAR           N/A     30  25  80 CALM      29.91S
SCOBEY           N/A     34  17  50 SW13      29.82F WCI  25
$$

MTZ028>42-056>058-060800-
SOUTHCENTRAL AND SOUTHEAST MONTANA

CITY           SKY/WX    TMP DP  RH WIND       PRES   REMARKS
BAKER          CLOUDY    34  20  56 W14       30.00F WCI  25
BILLINGS       CLOUDY    37  14  38 SW22G30   30.07S WCI  26
LIVINGSTON     CLOUDY    34  16  47 SW51G63   30.13S WCI  17
MILES CITY     CLOUDY    37  21  52 W12       30.01F WCI  29
EKALAKA          N/A     33  17  52 SW10      30.00F WCI  25
FORSYTH          N/A     41  18  38 SW13      30.03S
LAUREL           N/A     36  13  39 SW16      30.05F WCI  26
ROUNDUP          N/A     41  18  39 SW12      29.93S
$$

REGIONAL REPORTS...DAKOTAS

CITY           SKY/WX    TMP DP  RH WIND       PRES   REMARKS
WILLISTON      CLEAR     29  24  82 SW12      29.89F WCI  19
MINOT          CLOUDY    33  21  61 SW13      29.88F WCI  24
DICKINSON      CLOUDY    31  21  66 SW17      29.94F WCI  19
BEACH            N/A     32  23  69 SW16G23   29.98F WCI  21
CROSBY           N/A     25  25 100 S15       29.85F WCI  12
TIOGA            N/A     27  27 100 CALM      29.91F
WATFORD CITY     N/A     32  25  74 SW10      29.90F WCI  24
BISMARCK       CLOUDY    24  19  81 CALM      29.99F
GRAND FORKS    CLOUDY    22  17  81 S8        30.01F WCI  12
FARGO          CLOUDY    21  17  84 S9        30.06F WCI  11
BUFFALO SD       N/A     31  20  63 W16       29.97F WCI  20
RAPID CITY     CLOUDY    24  15  68 CALM      30.11F
$$

REGIONAL REPORTS...WYOMING/IDAHO/WASHINGTON

CITY           SKY/WX    TMP DP  RH WIND       PRES   REMARKS
GILLETTE       CLOUDY    27  14  58 SW17      30.10F WCI  14
SHERIDAN       CLOUDY    23  13  65 SW6       30.07F WCI  16
BUFFALO WY     CLOUDY    30  12  47 SW9       30.09F WCI  22
CODY           CLOUDY    36  16  44 W15G26    30.15R WCI  26
YELLOWSTONE LA   N/A     19  15  84 CALM      30.37F
IDAHO FALLS    CLOUDY    20  16  84 N3        30.49S
SALMON         CLOUDY    12   9  85 CALM      30.38R
BOISE          PTCLDY    35  28  75 SE16      30.42F WCI  25
SPOKANE        LGT RAIN  44  35  70 SW31G39   30.09R
$$

REGIONAL REPORTS...ALBERTA

CITY           SKY/WX    TMP DP  RH WIND       PRES   REMARKS
EDMONTON       CLEAR     36  27  69 S7        29.45F WCI  30
CALGARY        MOCLDY    37  23  56 S7        29.61F
LETHBRIDGE     CLEAR     39  23  52 SW15      29.77F WCI  31
MEDICINE HAT   PTCLDY    45  28  53 SW21G29   29.74R
WATERTON GATE    N/A     45  18  33 SW38G53     N/A
CARDSTON         N/A     46  18  31 SW12G20     N/A
MILK RIVER       N/A     45  23  42 SW16G24     N/A
$$

REGIONAL REPORTS...SASKATCHEWAN

CITY           SKY/WX    TMP DP  RH WIND       PRES   REMARKS
SWIFT CURRENT  CLOUDY    43  27  52 W25G32    29.68F
REGINA         CLOUDY    21  19  93 SE9       29.73F WCI  11
SASKATOON      MOCLDY    27  23  86 S6        29.63F WCI  20
CYPRESS HILLS    N/A     41  19  42 W22G31      N/A
VAL MARIE        N/A     41  25  52 W18G24      N/A
ROCKGLEN         N/A     32  25  74 W20         N/A  WCI  20
ASSINIBOIA       N/A     27  23  86 S7          N/A  WCI  19
$$



USA.gov is the U.S. government's official web portal to all federal, state and local government web resources and services.